Regional Weather Roundup
Issued by NWS

Home | Current Version | Previous Version | Text Only | Print | Product List | Glossary Off
Versions: 1 2 3 4 5 6 7 8 9 10 11 12 13 14 15 16 17 18 19 20 21 22 23 24 25 26 27 28 29 30 31 32 33 34 35 36 37 38 39 40 41 42 43 44 45 46 47 48 49 50

000
ASUS43 KLOT 260703
RWRIL

ILLINOIS REGIONAL WEATHER ROUNDUP
NATIONAL WEATHER SERVICE CHICAGO/ROMEOVILLE IL
200 AM CDT SAT MAY 26 2018

NOTE: "FAIR" INDICATES FEW OR NO CLOUDS BELOW 12,000 FEET WITH NO
SIGNIFICANT WEATHER AND/OR OBSTRUCTIONS TO VISIBILITY.

* THESE STATIONS ARE NOT UNDER NWS QUALITY CONTROL. THEY ALSO MAY NOT
  REPORT WEATHER SUCH AS PRECIPITATION OR FOG.

ILZ001-002-007-009-015-016-024-260800-
NORTHWEST ILLINOIS

CITY           SKY/WX    TMP DP  RH WIND       PRES   REMARKS
MOLINE         FAIR      66  63  90 N7        29.80R
STERLING*        N/A    N/A N/A N/A MISG        N/A
SAVANNA*       FAIR      66  61  83 SW6       29.76F
$$

ILZ003-004-008-010-011-017-018-260800-
NORTH CENTRAL ILLINOIS

CITY           SKY/WX    TMP DP  RH WIND       PRES   REMARKS
ROCKFORD       CLOUDY    68  59  73 W8        29.78R
FREEPORT*      FAIR      63  60  88 SW6       29.77F
ROCHELLE*      FAIR      66  63  89 W13       29.78R
DE KALB*       FAIR      67  66  97 S8        29.76F
PERU*          FAIR      69  66  90 S5        29.77F
$$

ILZ005-006-012>014-019>023-260800-
NORTHEAST ILLINOIS

CITY           SKY/WX    TMP DP  RH WIND       PRES   REMARKS
CHICAGO-OHARE  FAIR      73  64  73 SW10      29.74F
CHICAGO-MIDWAY MOCLDY    71  68  90 SW7       29.76F
AURORA         FAIR      70  65  84 S10       29.74F
LANSING*       FAIR      68  67  96 S6        29.77F
JOLIET*        FAIR      70  69  97 CALM      29.78F
WAUKEGAN       FAIR      71  66  84 S8        29.72F
DUPAGE AIRPORT FAIR      69  65  86 S7        29.74F
KANKAKEE*      FAIR      68  66  93 CALM      29.79F
WHEELING       FAIR      72  67  84 S9        29.76F
MORRIS*        FAIR      69  66  91 SW6       29.76F
ROMEOVILLE*    FAIR      69  66  91 S7        29.77F
NORTHERLY ISL    N/A     71  65  81 S7          N/A
$$

LMZ740>746-260800-
SOUTHERN LAKE MICHIGAN

STATION/POSITION SKY/WX   TEMP    WIND        PRES    VSBY  WAVE
                          AIR SEA DIR/SP/G                  HT/PER
                          (F)     (DEG/KT/KT) (MB)    (MI)  (FT/S)
SOUTHERN BUOY              52 39  180/ 16/ 16 1007.8F         1
WILMETTE HARBOR            66 56  200/  6/  8   N/A           1
HARRISON CRIB              72     190/ 13/ 14   N/A
BURNHAM HARBOR             71     190/  6/  9   N/A
CALUMET HARBOR             71     180/  3/  6 1007.8F
BURNS HARBOR               72     190/  4/  7 1009.1F
MICHIGAN CITY              67     180/  2/  3   N/A
MICHIGAN CITY 6N           63 60  160/  4/  6   N/A           1
ST. JOSEPH                 61 57  260/  4/  6 1008.9S         1/ 3
$$

ILZ025>027-034>036-040-047-049-050-058-095>099-260800-
WEST-CENTRAL ILLINOIS

CITY           SKY/WX    TMP DP  RH WIND       PRES   REMARKS
QUINCY         PTCLDY    69  65  86 SE7       29.79F
GALESBURG*     FAIR      67  65  91 S7        29.80F
MACOMB*        CLEAR     66  66 100 S7        29.80F FOG
JACKSONVILLE*  CLOUDY    69  67  94 S5        29.80F
PITTSFIELD*    PTCLDY    69  69  99 CALM      29.82F
$$

ILZ028>032-037-038-041>044-048-051>054-059>061-260800-
CENTRAL ILLINOIS

CITY           SKY/WX    TMP DP  RH WIND       PRES   REMARKS
PONTIAC        FAIR      69  68  98 W5        29.80S
BLOOMINGTON    FAIR      68  67  96 W7        29.82R
DECATUR        MOCLDY    69  68  96 SW6       29.81F
PEORIA         FAIR      66  66 100 CALM      29.79F FOG
LACON*         FAIR      67  66  95 SW5       29.76F
LINCOLN*       FAIR      70  70 100 CALM      29.80F FOG
SPRINGFIELD    FAIR      70  70 100 SW3       29.81F
TAYLORVILLE    MOCLDY    69  69  99 S8        29.81F
$$

ILZ033-039-045-046-055>057-062-063-260800-
EAST-CENTRAL ILLINOIS

CITY           SKY/WX    TMP DP  RH WIND       PRES   REMARKS
CHAMPAIGN      MOCLDY    70  68  93 SW14      29.81F
DANVILLE*      FAIR      69  68  98 S9        29.79F
RANTOUL*       FAIR      72  70  96 SW8       29.81F
MATTOON        FAIR      69  67  93 SW6       29.82F
PARIS*         FAIR      69  65  90 SW9       29.84F
$$

ILZ079-100>102-260800-
SOUTHWEST ILLINOIS

CITY           SKY/WX    TMP DP  RH WIND       PRES   REMARKS
ALTON          CLOUDY    71  68  90 SW5       29.83F
BELLEVILLE     CLOUDY    71  66  85 CALM        N/A
CAHOKIA*       CLOUDY    71  65  81 SW3       29.82F
SPARTA*        PTCLDY    70  70 100 CALM      29.84F
$$

ILZ064>066-069>071-074>076-080>082-084>086-088>090-092>094-260800-
SOUTH-CENTRAL ILLINOIS

CITY           SKY/WX    TMP DP  RH WIND       PRES   REMARKS
CARBONDALE     FAIR      68  67  96 S5        29.84F
CAIRO*         FAIR      70  69  95 CALM      29.85F
EFFINGHAM*     FAIR      68  68  99 S5        29.85F
MARION         FAIR      67  67  98 S5        29.85F
MT. VERNON     FAIR      66  65  96 CALM      29.84F FOG
CENTRALIA*     CLOUDY    68  68 100 CALM      29.83S
SALEM*         FAIR      69  67  92 S3        29.84F
METROPOLIS*    FAIR      70  69  96 CALM      29.86F
$$

ILZ067-068-072-073-078-083-087-091-260800-
SOUTHEAST ILLINOIS

CITY           SKY/WX    TMP DP  RH WIND       PRES   REMARKS
LAWRENCEVILLE  FAIR      72  63  73 S6        29.85F
FLORA*         FAIR      68  67  96 S3        29.85F FOG
FAIRFIELD*     FAIR      67  67 100 CALM      29.84S
HARRISBURG*    FAIR      68  68 100 S3        29.86F
ROBINSON*      MOCLDY    69  66  90 S7        29.85F
CARMI*         FAIR      68  67  96 S5        29.85F
$$

ABBREVIATIONS USED IN REMARKS
   TC - TEMPERATURE IN CELSIUS
  WCI - WIND CHILL INDEX
   HX - HEAT INDEX
  VSB - VISIBILITY
$$





USA.gov is the U.S. government's official web portal to all federal, state and local government web resources and services.